Snowfall_Accumulation
0.0 0.0 0.0 0.0 0.0 0.0 0.0 0.0 0.0 0.0 0.0 0.0 0.0 0.0 0.0 0.0 0.0 0.0 0.0 0.0 0.0 0.0 0.0 0.0 0.0 0.0 0.0 0.0 0.0 0.0 0.0 0.0 0.0 0.0 0.0 0.0 0.0 0.0 0.0 0.0 0.0 0.0 0.0 0.0
0.0 0.0 0.0 0.0 0.0 0.0 0.0 0.0 0.0 0.0 0.0 0.0 0.0 0.0 0.0 0.0 0.0 0.0 0.0 0.0 0.0 0.0 0.0 0.0 0.0 0.0 0.0 0.0 0.0 0.0 0.0 0.0 0.0 0.0 0.0 0.0 0.0 0.0 0.0 0.0 0.0 0.0 0.0 0.0
0.0 0.0 0.0 0.0 0.0 0.0 0.0 0.0 0.0 0.0 0.0 0.0 0.0 0.0 0.0 0.0 0.0 0.0 0.0 0.0 0.0 0.0 0.0 0.0 0.0 0.0 0.0 0.0 0.0 0.0 0.0 0.0 0.0 0.0 0.0 0.0 0.0 0.0 0.0 0.0 0.0 0.0 0.0 0.0
0.0 0.0 0.0 0.0 0.0 0.0 0.0 0.0 0.0 0.0 0.0 0.0 0.0 0.0 0.0 0.0 0.0 0.0 0.0 0.0 0.0 0.0 0.0 0.0 0.0 0.0 0.0 0.0 0.0 0.0 0.0 0.0 0.0 0.0 0.0 0.0 0.0 0.0 0.0 0.0 0.0 0.0 0.0 0.0
0.0 0.0 0.0 0.0 0.0 0.0 0.0 0.0 0.0 0.0 0.0 0.0 0.0 0.0 0.0 0.0 0.0 0.0 0.0 0.0 0.0 0.0 0.0 0.0 0.0 0.0 0.0 0.0 0.0 0.0 0.0 0.0 0.0 0.0 0.0 0.0 0.0 0.0 0.0 0.0 0.0 0.0 0.0 0.0
0.0 0.0 0.0 0.0 0.0 0.0 0.0 0.0 0.0 0.0 0.0 0.1 0.0 0.0 0.0 0.0 0.0 0.0 0.0 0.0 0.0 0.0 0.0 0.0 0.0 0.0 0.0 0.0 0.0 0.0 0.0 0.0 0.0 0.0 0.0 0.0 0.0 0.0 0.0 0.0 0.0 0.0 0.0 0.0
0.0 0.0 0.0 0.0 0.0 0.0 0.0 0.0 0.2 0.3 0.3 0.1 0.0 0.0 0.0 0.0 0.0 0.0 0.0 0.0 0.0 0.0 0.0 0.0 0.0 0.0 0.0 0.0 0.0 0.0 0.0 0.0 0.0 0.0 0.0 0.0 0.0 0.0 0.0 0.0 0.0 0.0 0.0 0.0
0.0 0.2 0.0 0.0 0.0 0.0 0.0 0.0 0.3 0.5 0.3 0.1 0.0 0.1 0.0 0.0 0.0 0.0 0.0 0.0 0.0 0.0 0.0 0.0 0.0 0.0 0.0 0.0 0.0 0.0 0.0 0.0 0.0 0.0 0.0 0.0 0.0 0.0 0.0 0.0 0.0 0.0 0.0 0.0
0.0 0.0 0.0 0.0 0.0 0.0 0.0 0.0 0.0 0.2 0.0 0.1 0.0 0.0 0.0 0.0 0.0 0.0 0.0 0.0 0.0 0.0 0.0 0.0 0.0 0.0 0.0 0.0 0.0 0.0 0.0 0.0 0.0 0.0 0.0 0.0 0.0 0.0 0.0 0.0 0.0 0.0 0.0 0.0
0.0 0.1 0.0 0.0 0.0 0.0 0.0 0.0 0.5 0.5 0.8 0.2 0.0 0.0 0.9 0.0 0.0 0.0 0.0 0.0 0.0 0.0 0.0 0.0 0.0 0.0 0.0 0.0 0.0 0.0 0.0 0.0 0.0 0.0 0.0 0.0 0.0 0.0 0.0 0.0 0.0 0.0 0.0 0.0
0.0 0.0 0.1 0.0 0.0 0.0 0.0 0.0 0.0 0.1 0.4 0.9 0.5 0.1 0.0 0.0 0.0 0.0 0.0 0.0 0.0 0.0 0.0 0.0 0.0 0.0 0.0 0.0 0.0 0.0 0.0 0.0 0.0 0.0 0.0 0.0 0.0 0.0 0.0 0.0 0.0 0.0 0.0 0.0
0.0 0.0 0.0 0.0 0.0 0.0 0.0 0.0 0.0 1.9 0.2 0.3 0.6 0.3 0.0 0.0 0.0 0.0 0.0 0.0 0.0 0.0 0.0 0.0 0.0 0.0 0.0 0.0 0.0 0.0 0.0 0.2 0.2 0.2 0.0 0.0 0.0 0.0 0.0 0.0 0.0 0.0 0.0 0.0
0.0 0.4 0.2 0.1 0.1 0.0 0.0 0.0 0.0 0.1 0.0 0.1 2.9 0.8 0.0 0.0 0.0 0.0 0.0 0.0 0.0 0.0 0.0 0.0 0.0 0.0 0.0 0.0 0.0 0.0 0.0 0.2 0.2 0.4 0.2 0.1 0.0 0.0 0.0 0.0 0.0 0.0 0.0 0.0
nan 0.0 0.0 0.0 0.1 0.0 0.1 0.0 0.0 0.1 2.5 0.3 0.1 0.0 0.0 0.0 0.0 0.0 0.0 0.0 0.0 0.0 0.0 0.0 0.0 0.0 0.0 0.0 0.0 0.0 0.0 0.1 0.1 0.1 0.1 0.1 0.1 0.1 0.1 0.0 0.0 0.0 0.0 0.0
0.0 0.1 0.0 0.0 0.0 0.0 0.0 0.0 0.0 0.0 0.0 0.9 0.2 0.3 0.1 0.0 0.0 0.0 0.0 0.0 0.0 0.0 0.0 0.0 0.0 0.0 0.0 0.0 0.0 0.0 0.1 0.1 0.1 0.1 0.4 0.8 0.6 0.3 0.1 0.1 0.1 0.1 0.1 0.0
0.0 0.6 0.1 0.0 0.0 0.0 0.0 0.0 0.0 0.0 0.0 0.0 0.0 0.1 0.0 0.0 0.0 0.0 0.0 0.0 0.0 0.1 0.0 0.0 0.0 0.0 0.1 0.2 0.2 0.3 0.6 0.7 0.7 0.5 1.4 2.3 0.9 0.6 0.6 0.5 0.3 0.4 0.4 0.6
0.1 0.3 0.3 0.8 0.0 0.0 0.3 0.0 0.0 0.0 0.0 0.0 2.0 0.2 0.0 0.1 0.1 0.1 0.0 0.0 0.1 0.1 0.2 0.2 0.3 0.5 0.6 0.8 0.7 0.6 0.9 0.8 0.9 1.2 1.3 1.2 1.5 1.3 2.7 0.8 1.1 1.8 1.6 1.5
0.0 0.2 0.4 0.9 0.3 1.2 0.2 0.0 0.0 0.1 0.1 0.1 0.0 0.1 0.1 0.1 0.1 0.1 0.1 0.2 0.3 0.6 0.4 0.8 1.1 1.0 1.5 1.3 0.9 1.1 1.5 1.7 1.6 2.2 2.1 1.3 1.2 2.1 1.0 3.1 4.2 4.6 5.2 6.6
0.0 0.1 2.4 2.7 1.4 0.2 0.2 1.0 2.7 1.6 0.8 0.2 0.2 0.3 0.2 0.1 0.1 0.5 0.2 0.3 1.1 2.2 4.0 2.3 2.2 2.1 1.8 1.9 2.1 2.1 2.1 1.7 1.3 3.9 3.9 4.7 3.9 3.9 2.9 4.7 8.6 7.3 5.7 6.2
0.0 0.0 0.7 1.4 1.4 6.5 3.3 0.1 0.1 0.2 2.4 0.2 0.2 0.2 0.3 0.3 1.4 4.0 1.0 0.5 1.3 2.1 3.1 5.4 3.3 2.6 1.4 2.0 1.1 1.6 1.9 2.0 3.6 3.8 4.6 3.2 4.0 5.6 8.3 6.2 5.9 8.8 7.7 8.2
0.4 0.7 1.5 1.5 2.7 1.2 0.2 0.4 0.1 3.0 3.4 0.4 0.2 0.3 0.5 1.3 1.0 3.5 2.2 2.6 2.2 2.9 2.2 1.3 2.4 4.9 3.1 1.3 1.1 1.7 2.9 4.2 4.9 3.2 3.2 2.7 1.6 2.6 3.9 4.2 5.7 6.1 7.1 6.9
0.3 1.0 3.2 3.2 4.1 3.3 0.2 0.3 0.7 2.0 0.6 0.4 0.6 1.0 0.7 1.9 3.7 5.2 4.7 3.1 2.1 1.9 0.8 0.3 0.3 0.8 2.1 2.2 2.0 2.6 1.7 3.2 2.1 2.4 2.4 2.6 3.1 2.8 2.6 2.6 3.8 4.9 6.2 7.0
5.9 2.1 5.8 0.8 3.6 0.5 0.4 1.0 0.4 0.3 0.4 0.7 0.7 1.2 0.9 2.6 4.8 5.8 6.2 3.9 2.4 1.4 0.5 0.2 0.1 0.1 0.2 0.2 0.3 2.3 3.3 1.2 1.7 1.3 1.7 2.3 2.1 2.1 2.4 2.7 3.3 3.1 2.8 3.7
0.3 0.1 1.6 0.3 0.6 0.3 0.3 0.2 0.3 0.3 0.4 0.6 0.6 0.8 1.3 6.3 7.5 7.0 3.9 2.4 1.4 0.5 0.3 0.1 0.1 0.1 0.2 0.1 0.1 0.2 0.2 0.6 1.5 1.1 1.0 0.8 1.0 1.8 1.6 1.8 2.7 3.2 3.9 4.7
0.6 0.1 0.1 0.4 0.3 0.1 0.1 0.2 0.3 0.5 0.5 0.7 1.2 1.5 2.5 2.6 2.9 2.0 1.9 1.4 0.6 0.2 0.1 0.0 0.1 0.1 0.1 0.0 0.1 0.1 0.1 0.0 0.1 0.1 0.2 0.2 0.5 0.5 1.3 2.9 2.6 2.5 5.0 4.7
0.3 0.6 1.1 2.7 0.2 0.1 0.3 0.2 0.2 0.5 1.1 0.8 0.6 1.9 2.2 0.9 2.0 1.2 2.2 1.8 0.7 0.4 0.2 0.1 0.1 0.1 0.2 0.1 0.1 0.1 0.1 0.1 0.2 0.1 0.4 0.7 0.7 0.9 1.0 1.1 2.1 nan nan nan
Water_Equivalent
0.00 0.00 0.00 0.00 0.00 0.00 0.00 0.00 0.00 0.00 0.00 0.00 0.00 0.00 0.00 0.00 0.00 0.00 0.00 0.00 0.00 0.00 0.00 0.00 0.00 0.00 0.00 0.00 0.00 0.00 0.00 0.00 0.00 0.00 0.00 0.00 0.00 0.00 0.00 0.00 0.00 0.00 0.00 0.00
0.00 0.00 0.00 0.00 0.00 0.00 0.00 0.00 0.00 0.00 0.00 0.00 0.00 0.00 0.00 0.00 0.00 0.00 0.00 0.00 0.00 0.00 0.00 0.00 0.00 0.00 0.00 0.00 0.00 0.00 0.00 0.00 0.00 0.00 0.00 0.00 0.00 0.00 0.00 0.00 0.00 0.00 0.00 0.00
0.00 0.00 0.00 0.00 0.00 0.00 0.00 0.00 0.00 0.00 0.00 0.00 0.00 0.00 0.00 0.00 0.00 0.00 0.00 0.00 0.00 0.00 0.00 0.00 0.00 0.00 0.00 0.00 0.00 0.00 0.00 0.00 0.00 0.00 0.00 0.00 0.00 0.00 0.00 0.00 0.00 0.00 0.00 0.00
0.00 0.00 0.00 0.00 0.00 0.00 0.00 0.00 0.00 0.00 0.00 0.00 0.00 0.00 0.00 0.00 0.00 0.00 0.00 0.00 0.00 0.00 0.00 0.00 0.00 0.00 0.00 0.00 0.00 0.00 0.00 0.00 0.00 0.00 0.00 0.00 0.00 0.00 0.00 0.00 0.00 0.00 0.00 0.00
0.00 0.00 0.00 0.00 0.00 0.00 0.00 0.00 0.00 0.00 0.00 0.00 0.00 0.00 0.00 0.00 0.00 0.00 0.00 0.00 0.00 0.00 0.00 0.00 0.00 0.00 0.00 0.00 0.00 0.00 0.00 0.00 0.00 0.00 0.00 0.00 0.00 0.00 0.00 0.00 0.00 0.00 0.00 0.00
0.00 0.00 0.00 0.00 0.00 0.00 0.00 0.00 0.00 0.00 0.00 0.01 0.00 0.00 0.00 0.00 0.00 0.00 0.00 0.00 0.00 0.00 0.00 0.00 0.00 0.00 0.00 0.00 0.00 0.00 0.00 0.00 0.00 0.00 0.00 0.00 0.00 0.00 0.00 0.00 0.00 0.00 0.00 0.00
0.00 0.00 0.00 0.00 0.00 0.00 0.00 0.00 0.05 0.05 0.07 0.01 0.00 0.00 0.00 0.00 0.00 0.00 0.00 0.00 0.00 0.00 0.00 0.00 0.00 0.00 0.00 0.00 0.00 0.00 0.00 0.00 0.00 0.00 0.00 0.00 0.00 0.00 0.00 0.00 0.00 0.00 0.00 0.00
0.00 0.04 0.00 0.00 0.00 0.00 0.00 0.00 0.04 0.06 0.07 0.01 0.00 0.02 0.00 0.00 0.00 0.00 0.00 0.00 0.00 0.00 0.00 0.00 0.00 0.00 0.00 0.00 0.00 0.00 0.00 0.00 0.00 0.00 0.00 0.00 0.00 0.00 0.00 0.00 0.00 0.00 0.00 0.00
0.00 0.00 0.00 0.00 0.00 0.00 0.00 0.01 0.00 0.03 0.00 0.02 0.00 0.00 0.00 0.01 0.00 0.00 0.00 0.00 0.00 0.00 0.00 0.00 0.00 0.00 0.00 0.00 0.00 0.00 0.00 0.00 0.00 0.00 0.00 0.00 0.00 0.00 0.00 0.00 0.00 0.00 0.00 0.00
0.00 0.02 0.00 0.00 0.00 0.00 0.00 0.00 0.12 0.12 0.10 0.02 0.00 0.00 0.15 0.00 0.00 0.00 0.00 0.00 0.00 0.00 0.00 0.00 0.00 0.00 0.00 0.00 0.00 0.00 0.00 0.00 0.00 0.00 0.00 0.00 0.00 0.00 0.00 0.00 0.00 0.00 0.00 0.00
0.00 0.00 0.02 0.00 0.00 0.00 0.00 0.00 0.00 0.02 0.07 0.14 0.09 0.03 0.00 0.00 0.00 0.00 0.00 0.00 0.00 0.00 0.00 0.00 0.00 0.00 0.00 0.00 0.00 0.00 0.00 0.00 0.00 0.00 0.00 0.00 0.00 0.00 0.00 0.00 0.00 0.00 0.00 0.00
0.00 0.00 0.00 0.00 0.00 0.00 0.00 0.00 0.00 0.37 0.04 0.06 0.12 0.06 0.00 0.00 0.00 0.00 0.00 0.00 0.00 0.00 0.00 0.00 0.00 0.00 0.00 0.00 0.00 0.00 0.00 0.05 0.04 0.03 0.00 0.00 0.00 0.00 0.00 0.00 0.00 0.00 0.00 0.00
0.00 0.08 0.03 0.01 0.01 0.00 0.00 0.00 0.00 0.02 0.01 0.02 0.55 0.13 0.00 0.00 0.00 0.00 0.00 0.00 0.00 0.00 0.00 0.00 0.00 0.00 0.00 0.00 0.00 0.00 0.00 0.04 0.05 0.08 0.03 0.01 0.01 0.00 0.00 0.00 0.00 0.00 0.00 0.00
nan 0.00 0.00 0.00 0.01 0.00 0.01 0.00 0.00 0.02 0.54 0.06 0.03 0.01 0.00 0.00 0.00 0.00 0.00 0.00 0.00 0.00 0.00 0.00 0.00 0.00 0.00 0.00 0.00 0.00 0.00 0.02 0.02 0.03 0.03 0.02 0.02 0.02 0.01 0.00 0.00 0.00 0.00 0.00
0.01 0.02 0.00 0.00 0.00 0.00 0.00 0.00 0.00 0.00 0.00 0.19 0.04 0.10 0.02 0.00 0.00 0.01 0.01 0.00 0.00 0.00 0.00 0.00 0.00 0.00 0.00 0.00 0.00 0.00 0.02 0.02 0.01 0.03 0.08 0.14 0.12 0.07 0.03 0.02 0.03 0.02 0.02 0.00
0.01 0.16 0.02 0.00 0.00 0.00 0.01 0.00 0.00 0.00 0.00 0.00 0.00 0.04 0.00 0.00 0.01 0.00 0.01 0.00 0.01 0.01 0.00 0.00 0.00 0.00 0.01 0.03 0.04 0.05 0.11 0.13 0.13 0.10 0.26 0.50 0.18 0.13 0.12 0.08 0.06 0.07 0.06 0.10
0.02 0.09 0.07 0.20 0.00 0.00 0.05 0.01 0.00 0.00 0.00 0.00 0.49 0.03 0.00 0.02 0.01 0.01 0.01 0.00 0.01 0.02 0.03 0.03 0.05 0.08 0.10 0.13 0.13 0.11 0.16 0.15 0.16 0.21 0.23 0.23 0.33 0.26 0.47 0.14 0.19 0.31 0.25 0.22
0.01 0.04 0.08 0.21 0.08 0.21 0.04 0.00 0.01 0.01 0.01 0.02 0.01 0.02 0.02 0.02 0.02 0.02 0.02 0.03 0.05 0.13 0.08 0.15 0.20 0.17 0.27 0.23 0.16 0.19 0.26 0.28 0.26 0.38 0.37 0.27 0.22 0.38 0.20 0.54 0.69 0.73 0.82 1.04
0.00 0.01 0.51 0.51 0.26 0.03 0.04 0.20 0.55 0.33 0.13 0.04 0.04 0.06 0.03 0.02 0.02 0.09 0.04 0.07 0.21 0.45 1.04 0.39 0.41 0.35 0.33 0.36 0.40 0.38 0.37 0.29 0.21 0.65 0.70 0.92 0.75 0.68 0.54 0.80 1.60 1.26 0.92 0.93
0.00 0.00 0.15 0.28 0.19 0.87 0.55 0.03 0.01 0.04 0.35 0.05 0.03 0.04 0.06 0.05 0.25 0.75 0.19 0.10 0.24 0.40 0.58 1.21 0.64 0.51 0.29 0.40 0.22 0.47 0.49 0.61 0.89 0.88 0.87 0.63 0.92 1.15 1.85 1.30 1.04 1.93 1.47 1.39
0.09 0.13 0.27 0.29 0.43 0.22 0.04 0.08 0.03 0.43 0.45 0.07 0.04 0.05 0.09 0.19 0.16 0.74 0.48 0.54 0.45 0.55 0.40 0.23 0.65 1.24 0.62 0.33 0.26 0.35 0.76 0.77 1.16 0.84 0.99 0.82 0.44 0.62 0.91 1.14 1.63 1.41 1.61 1.57
0.05 0.19 0.56 0.50 0.62 0.41 0.04 0.06 0.11 0.29 0.10 0.07 0.11 0.17 0.10 0.38 0.68 1.04 0.91 0.54 0.35 0.30 0.14 0.05 0.06 0.16 0.56 0.56 0.51 0.46 0.30 0.62 0.43 0.59 0.58 0.60 0.76 0.68 0.62 0.61 0.84 1.15 1.42 1.57
1.26 0.39 0.88 0.13 0.53 0.09 0.08 0.18 0.09 0.07 0.06 0.11 0.11 0.18 0.16 0.52 0.92 1.10 0.90 0.61 0.36 0.22 0.08 0.03 0.02 0.02 0.03 0.05 0.07 0.51 0.58 0.22 0.31 0.24 0.30 0.54 0.46 0.44 0.51 0.55 0.65 0.58 0.52 0.63
0.06 0.02 0.32 0.05 0.11 0.06 0.05 0.04 0.06 0.05 0.08 0.10 0.11 0.13 0.22 1.27 1.48 1.04 0.58 0.35 0.20 0.08 0.06 0.02 0.02 0.02 0.03 0.02 0.03 0.03 0.05 0.14 0.27 0.19 0.17 0.14 0.16 0.32 0.28 0.34 0.50 0.59 0.69 0.73
0.11 0.03 0.02 0.06 0.06 0.02 0.02 0.04 0.05 0.08 0.08 0.12 0.21 0.27 0.42 0.43 0.41 0.30 0.26 0.20 0.09 0.04 0.02 0.01 0.01 0.01 0.02 0.01 0.01 0.01 0.01 0.01 0.01 0.02 0.03 0.04 0.10 0.08 0.21 0.41 0.40 0.42 0.69 0.72
0.08 0.12 0.21 0.48 0.05 0.02 0.05 0.04 0.04 0.10 0.20 0.13 0.10 0.29 0.36 0.15 0.29 0.17 0.29 0.26 0.11 0.07 0.04 0.02 0.02 0.01 0.03 0.02 0.03 0.03 0.02 0.02 0.07 0.05 0.15 0.23 0.21 0.26 0.25 0.30 0.42 nan nan nan
SL_Ratio
nan nan nan nan nan nan nan nan nan nan nan nan nan nan nan nan nan nan nan nan nan nan nan nan nan nan nan nan nan nan nan nan nan nan nan nan nan nan nan nan nan nan nan nan
nan nan nan nan nan nan nan nan nan nan nan nan nan nan nan nan nan nan nan nan nan nan nan nan nan nan nan nan nan nan nan nan nan nan nan nan nan nan nan nan nan nan nan nan
nan nan nan nan nan nan nan nan nan nan nan nan nan nan nan nan nan nan nan nan nan nan nan nan nan nan nan nan nan nan nan nan nan nan nan nan nan nan nan nan nan nan nan nan
nan nan nan nan nan nan nan nan nan nan nan 6.0 nan 0.0 nan nan nan nan nan nan nan nan nan nan nan nan nan nan nan nan nan nan nan nan nan nan nan nan nan nan nan nan nan nan
nan nan nan nan nan nan nan nan nan nan nan nan nan nan nan nan nan nan nan nan nan nan nan nan nan nan nan nan nan nan nan nan nan nan nan nan nan nan nan nan nan nan nan nan
nan nan nan nan nan nan nan nan nan nan nan 5.2 nan nan 0.0 nan nan nan nan nan nan nan nan nan nan nan nan nan nan nan nan nan nan nan nan nan nan nan nan nan nan nan nan nan
nan nan nan nan nan nan nan nan 4.9 5.7 4.2 5.2 nan nan nan nan nan nan nan nan nan nan nan nan nan nan nan nan nan nan nan nan nan nan nan nan nan nan nan nan nan nan nan nan
4.4 5.7 nan nan nan nan nan nan 5.9 7.9 4.7 5.7 nan 4.9 nan nan nan nan nan nan nan nan nan nan nan nan nan nan nan nan nan nan nan nan nan nan nan nan nan nan nan nan nan nan
nan nan nan nan nan nan nan 3.8 nan 5.5 5.0 4.4 5.0 nan nan 2.9 nan nan nan nan nan nan nan nan nan nan nan nan nan nan nan nan nan nan nan nan nan nan nan nan nan nan nan nan
nan 5.9 nan nan nan nan nan nan 4.4 4.1 7.8 6.7 nan nan 6.1 4.3 nan nan nan nan nan nan nan nan nan nan nan nan nan nan nan nan nan nan nan nan nan nan nan nan nan nan nan nan
nan nan 5.6 nan nan nan nan nan 0.0 4.5 5.2 6.0 5.5 4.7 nan nan nan nan nan nan nan nan nan nan nan nan nan nan nan nan nan nan nan nan nan nan nan nan nan nan nan nan nan nan
nan nan 10.0 nan nan nan nan nan nan 5.0 5.6 5.6 4.8 5.1 nan nan nan nan nan nan nan nan nan nan nan nan nan nan nan 4.0 4.7 4.3 4.3 4.6 3.3 nan nan nan nan nan nan nan nan nan
nan 5.5 6.8 6.7 4.6 nan nan nan 0.0 3.1 4.5 5.2 5.3 5.7 nan nan nan nan nan nan nan nan nan nan nan nan nan nan nan nan nan 5.0 5.0 4.7 5.2 5.0 4.8 4.3 nan nan nan nan nan nan
nan nan 5.0 7.9 5.3 nan 3.5 nan nan 4.2 4.6 4.1 4.6 3.8 nan nan nan nan nan 5.0 5.0 4.0 nan nan nan nan nan nan nan nan 4.0 4.5 3.8 4.1 5.1 4.1 4.5 4.7 5.2 nan 6.7 nan nan nan
3.1 4.8 nan nan nan nan 5.0 3.3 3.6 nan 4.6 5.0 3.6 3.4 3.4 3.3 3.3 4.2 4.4 0.0 nan nan nan nan nan nan nan nan 10.0 5.7 4.3 5.2 5.0 4.4 5.2 5.3 5.2 4.8 4.2 5.3 5.5 5.5 5.3 5.5
3.8 3.9 3.8 nan nan nan 3.5 nan nan nan 3.8 3.3 nan 4.1 nan nan 4.7 4.2 4.8 4.0 5.4 5.5 5.7 nan nan nan 5.5 5.5 5.9 5.4 5.7 5.3 5.1 5.4 5.3 4.5 5.1 5.2 5.0 5.7 5.7 5.3 5.4 5.9
4.2 3.8 4.2 3.8 nan nan 4.9 3.5 5.0 nan 2.9 3.3 4.1 4.4 2.5 4.8 5.1 5.4 5.2 5.0 5.6 5.0 5.2 5.0 5.7 5.8 5.8 6.1 5.9 5.8 5.8 5.6 5.8 5.8 5.6 5.2 4.7 5.1 5.7 5.7 5.7 5.9 6.4 6.6
4.2 4.7 4.5 4.6 3.5 5.5 3.8 nan 4.1 4.6 4.4 4.3 4.1 4.2 4.6 5.3 5.4 5.7 5.4 5.5 5.4 4.7 5.1 5.4 5.8 6.1 5.6 5.7 5.7 5.7 5.8 6.0 6.1 5.8 5.6 5.0 5.4 5.5 4.9 5.6 6.1 6.4 6.4 6.3
nan 4.2 4.8 5.3 5.5 5.2 4.7 4.7 4.9 4.9 6.1 4.9 4.9 5.3 5.4 5.3 5.7 5.8 5.0 5.0 5.2 4.7 3.8 5.9 5.5 6.0 5.6 5.3 5.1 5.6 5.8 6.0 6.1 6.0 5.5 5.1 5.2 5.8 5.5 6.0 5.4 5.8 6.2 6.6
nan nan 4.7 5.0 7.1 7.4 6.0 4.7 4.1 4.5 6.8 5.3 5.2 5.2 5.5 5.3 5.9 5.3 5.0 5.2 5.5 5.2 5.3 4.4 5.2 5.0 4.9 4.9 5.1 3.5 3.9 3.3 4.0 4.3 5.3 5.1 4.3 4.9 4.5 4.8 5.6 4.6 5.3 5.9
4.5 5.2 5.5 5.2 6.2 5.4 5.1 4.9 4.4 7.0 7.5 5.5 5.5 5.5 5.4 6.8 6.1 4.7 4.6 4.8 5.0 5.2 5.6 5.7 3.6 3.9 5.1 3.9 4.4 4.7 3.8 5.4 4.2 3.8 3.2 3.4 3.7 4.2 4.3 3.6 3.5 4.3 4.4 4.4
5.7 5.3 5.7 6.4 6.6 8.2 5.0 4.6 6.7 6.8 5.6 5.8 6.0 6.1 7.0 5.1 5.4 5.0 5.2 5.7 6.1 6.3 5.9 5.1 5.1 4.9 3.8 3.9 3.9 5.6 5.5 5.2 4.9 4.1 4.1 4.4 4.0 4.2 4.3 4.2 4.6 4.3 4.4 4.5
4.7 5.3 6.6 5.9 6.8 5.1 4.9 5.6 5.0 5.0 5.8 6.1 6.5 6.3 5.6 5.0 5.2 5.2 6.9 6.4 6.6 6.3 5.6 5.4 5.6 5.2 5.1 4.8 4.3 4.5 5.7 5.4 5.4 5.4 5.8 4.3 4.5 4.9 4.7 4.9 5.1 5.4 5.4 5.9
5.3 4.6 5.0 5.9 5.4 5.5 5.3 5.1 5.2 5.3 5.7 5.8 5.9 6.2 5.8 5.0 5.1 6.7 6.8 6.8 6.8 5.8 5.8 5.5 5.2 5.8 6.0 5.7 5.1 4.7 4.5 4.4 5.5 6.0 5.9 6.0 6.3 5.5 5.6 5.3 5.3 5.4 5.7 6.3
4.9 5.1 5.4 5.9 5.5 5.2 5.4 5.4 5.4 5.6 5.7 5.9 6.0 5.7 5.9 6.1 7.0 6.7 7.3 7.2 6.6 5.9 5.7 5.4 5.8 6.2 6.1 5.9 5.5 5.4 4.8 4.8 5.3 5.2 5.5 5.6 5.1 6.2 6.4 6.9 6.5 5.9 7.2 6.5
3.9 4.8 5.1 5.6 4.6 4.5 5.2 5.0 4.8 5.0 5.5 5.9 6.1 6.5 6.1 6.2 7.0 6.8 7.5 7.0 6.1 6.2 5.9 5.8 6.1 6.0 5.7 5.3 5.1 4.5 3.4 2.5 2.5 2.8 2.9 3.3 3.1 3.6 3.8 3.8 5.0 nan nan nan